Regional Weather Roundup
Issued by NWS Charleston, SC

Current Version | Previous Version | Graphics & Text | Print | Product List | Glossary On
Versions: 1 2 3 4 5 6 7 8 9 10 11 12 13 14 15 16 17 18 19 20 21 22 23 24 25 26 27 28 29 30 31 32 33 34 35 36 37 38 39 40 41 42 43 44 45 46 47 48 49 50
000 ASUS42 KCHS 292012 RWRCHS REGIONAL WEATHER ROUNDUP NATIONAL WEATHER SERVICE CHARLESTON SC 400 PM EDT SAT AUG 29 2015 NOTE: "FAIR" INDICATES FEW OR NO CLOUDS BELOW 12,000 FEET WITH NO SIGNIFICANT WEATHER AND/OR OBSTRUCTIONS TO VISIBILITY. NOT ALL STATIONS ARE QUALITY CONTROLLED BY THE NATIONAL WEATHER SERVICE. USE DATA WITH CAUTION...ESPECIALLY DEWPOINT OBSERVATIONS. SCZ027-030-031-034>040-042>050-292100- ...SOUTHEAST SOUTH CAROLINA... CITY SKY/WX TMP DP RH WIND PRES REMARKS N CHARLESTON CLOUDY 81 67 62 N6 30.13F WATERFRONT PRK N/A 81 72 74 N7 30.11F MOUNT PLEASANT FAIR 82 73 74 N3 30.13F JOHNS ISLAND FAIR 82 72 69 N7 30.12F PINOPOLIS N/A 84 61 45 NE7 30.06F MONCKS CORNER FAIR 82 63 51 NE3 30.13F SUMMERVILLE FAIR 82 66 57 CALM 30.15F BEAUFORT MCAS MOSUNNY 84 70 62 NE9 30.12F BEAUFORT ARPT FAIR 81 72 74 NE13 30.11F HILTON HEAD IS MOSUNNY 77 70 78 NE12 30.12F WALTERBORO CLOUDY 84 61 45 NE8 30.14F ALLENDALE FAIR 84 61 45 CALM 30.13F ...SOUTHERN MIDLANDS AND PEE DEE... CITY SKY/WX TMP DP RH WIND PRES REMARKS GEORGETOWN NOT AVBL KINGSTREE NOT AVBL ORANGEBURG PTSUNNY 85 54 34 E8 30.14F BARNWELL FAIR 86 59 39 E9 30.14F AIKEN FAIR 84 50 30 NE10G17 30.17F MANNING FAIR 81 54 39 N7 30.15F COLUMBIA PTSUNNY 89 51 27 E13G23 30.13F SUMTER PTSUNNY 86 55 34 E10 30.13F FLORENCE CLOUDY 85 56 37 NE8 30.15F MYRTLE BEACH PTSUNNY 84 66 54 NE8 30.15F N MYRTLE BEACH PTSUNNY 85 68 56 N5 30.13F $$ GAZ063-065-086>088-099>101-113>116-118-119-134>141-150-292100- ...SOUTHEAST GEORGIA... CITY SKY/WX TMP DP RH WIND PRES REMARKS SAVANNAH ARPT PTSUNNY 82 69 64 NE12 30.12F HUNTER AAF PTSUNNY 82 76 79 NE10 30.09F HX 90 FORT STEWART CLOUDY 82 71 69 NE8 30.09F STATESBORO PTSUNNY 86 72 62 NE6 30.10F HX 93 SYLVANIA PTCLDY 86 71 59 E10 30.12F HX 91 CLAXTON NOT AVBL ...CSRA...CENTRAL AND FAR SOUTHEAST GEORGIA... CITY SKY/WX TMP DP RH WIND PRES REMARKS THOMSON MOSUNNY 86 62 44 E9G17 30.17F AUGUSTA-BUSH MOSUNNY 85 61 44 E8G17 30.11F AUGUSTA-DANIEL MOSUNNY 86 58 38 NE10G17 30.14F SWAINSBORO FAIR 86 70 58 NE8 30.12F HX 90 VIDALIA CLOUDY 77 73 88 N3 30.12F EASTMAN FAIR 82 73 74 E7 30.13F HAZLEHURST CLOUDY 80 73 80 N3 30.10F ALMA CLOUDY 85 72 65 VRB6 30.08F HX 91 WAYCROSS PTSUNNY 88 75 65 E10 30.08S HX 98 JESUP FAIR 88 73 62 E12 30.10S HX 96 BAXLEY CLOUDY 82 75 78 N6 30.09F BRUNSWICK CLOUDY 82 73 74 NE17G23 30.10S SAINT SIMONS CLOUDY 82 73 74 NE14 30.09F $$ SCZ027-028-034-036>038-045-046-048>050-GAZ119-141-292100- ...LAKE AND SUPPLEMENTAL COASTAL OBSERVATIONS... STATION/POSITION TIME TEMP WIND PRES WAVE SWELL AIR SEA DIR/SP/G HT/PER HT/PER/DIR (UTC) (F) (DEG/KT/KT) (MB) (FT/S) (FT/S/D) UPR LAKE MARION NOT AVBL WINYAH BAY NOT AVBL LAKE MURRAY 1900 83 60/ 4/ 9 1021.0F ACE BASIN NERRS NOT AVBL FORT PULASKI NOT AVBL SAPELO ISLAND 1900 84 50/ 12 1020.0S $$ ANZ835-935-AMZ111-154-330-350-352-354-370-450-454-472-292100- ...C-MAN AND BUOY OBSERVATIONS... STATION/POSITION TIME TEMP WIND PRES WAVE SWELL AIR SEA DIR/SP/G HT/PER HT/PER/DIR (UTC) (F) (DEG/KT/KT) (MB) (FT/S) (FT/S/D) BUOY 41004 1950 80 85 30/ 16/ 16 1019.4F 4/ 6 2/11 BUOY 41008 1950 79 85 40/ 17/ 21 1019.2F 4/11 3/ 80/11 FOLLY BEACH CMAN 1900 81 60/ 9/ 10 1021.1F CAPERS NEARSHORE 1908 80 60/ 12/ 16 1021.1F FRIPP NEARSHORE 1900 79 50/ 12/ 14 1020.9F STATION/POSITION TIME TEMP WIND PRES WAVE SWELL AIR SEA DIR/SP/G HT/PER HT/PER/DIR (UTC) (F) (DEG/KT/KT) (MB) (FT/S) (FT/S/D) 5E ST. MARYS GA 1921 86 N/A 3/11 2/110/11 FRYING PAN BUOY 1950 81 81 20/ 14/ 16 1020.2F 4/11 2/100/11 BUOY 41025 1950 78 82 20/ 19/ 21 1019.4F 5/11 3/140/11 CAPE LOOKOUT NC 1900 80 40/ 18/ 22 1020.3F BUOY 41002 1950 82 84 250/ 4/ 6 1019.8F 4/11 3/100/11 BUOY 41010 1920 85 86 120/ 10/ 14 1018.5F ST AUGUSTINE FL 2000 83 87 70/ 10/ 11 1018.4F $$

USA.gov is the U.S. government's official web portal to all federal, state and local government web resources and services.